[keps] orb10007.2l.amsat

Ray Hoad r.hoad at att.net
Thu Jan 7 19:28:46 PST 2010


SB KEPS @ AMSAT  $ORB10007.N
2Line Orbital Elements 10007.AMSAT

HR AMSAT ORBITAL ELEMENTS FOR AMATEUR SATELLITES IN NASA FORMAT
FROM WA5QGD FORT WORTH,TX January 7, 2010
Send Subscribe/unsubscribe to KEPS at 
http://www.amsat.org/mailman/listinfo/keps
BID: ORB10007.N

DECODE 2-LINE ELSETS WITH THE FOLLOWING KEY:
1 AAAAAU 00  0  0 BBBBB.BBBBBBBB  .CCCCCCCC  00000-0  00000-0 0  DDDZ
2 AAAAA EEE.EEEE FFF.FFFF GGGGGGG HHH.HHHH III.IIII JJ.JJJJJJJJKKKKKZ
KEY: A-CATALOGNUM B-EPOCHTIME C-DECAY D-ELSETNUM E-INCLINATION F-RAAN
G-ECCENTRICITY H-ARGPERIGEE I-MNANOM J-MNMOTION K-ORBITNUM Z-CHECKSUM

TO ALL RADIO AMATEURS BT

AO-07
1 07530U 74089B   10007.63241875 -.00000027  00000-0  10000-3 0  6730
2 07530 101.4115 029.6742 0011844 228.7434 131.2619 12.53577456608336
FO-29
1 24278U 96046B   10007.62853288 -.00000032  00000-0  29124-5 0  2170
2 24278 098.5218 218.8711 0350563 180.2310 179.8720 13.52947066661395
SO-33
1 25509U 98061B   10006.94207377  .00000054  00000-0 -19066-5 0 06254
2 25509 031.4373 340.3339 0354557 319.9667 037.5283 14.28275786584981
RS-22
1 27939U 03042A   10007.57906057  .00000078  00000-0  23815-4 0  9815
2 27939 097.9146 239.6487 0013012 203.7785 156.2811 14.63371400335460
VO-52
1 28650U 05017B   10007.54483528  .00000455  00000-0  63905-4 0  4054
2 28650 097.7154 067.0630 0028267 082.1239 278.3179 14.81666923252909
SO-67
1 35870U 09049F   10007.72266110  .00000445  00000-0  21911-4 0  3320
2 35870 097.3564 060.6041 0010164 260.6080 247.4897 15.22910171 17042
HO-68
1 36122U 09072B   10007.71892420 -.00000045  00000-0  00000 0 0   702
2 36122 100.4950 069.6266 0007679 343.7517 016.3354 13.16279921  3106
UO-11
1 14781U 84021B   10006.14376814 -.00000244  00000-0 -25335-4 0 01465
2 14781 098.0794 057.1945 0009855 046.2635 313.9366 14.79757268387841
AO-16
1 20439U 90005D   10007.81484292 -.00000022  00000-0  72975-5 0  7918
2 20439 098.3097 332.2276 0010164 285.6366 074.3702 14.31844039 42432
LO-19
1 20442U 90005G   10006.86029312 -.00000034  00000-0  26795-5 0 07039
2 20442 098.2713 337.7708 0011075 282.5701 077.4254 14.32077510042463
AO-27
1 22825U 93061C   10006.79208432  .00000067  00000-0  42895-4 0 04282
2 22825 098.4672 319.0914 0008904 029.5641 330.6037 14.29283179848998
IO-26
1 22826U 93061D   10007.79620651 -.00000009  00000-0  13305-4 0  1610
2 22826 098.4593 320.7308 0009400 022.0066 338.1519 14.29536691849245
GO-32
1 25397U 98043D   10006.53855906 -.00000226  00000-0 -81930-4 0 00828
2 25397 098.3169 022.8690 0001749 045.6855 314.4454 14.23168173597052
NO-44
1 26931U 01043C   10006.80399849 -.00000110  00000-0 -10732-4 0 03586
2 26931 067.0526 259.7623 0006914 264.3454 095.6868 14.29578131431686
SO-50
1 27607U 02058C   10006.46595008 -.00000099  00000-0  61501-5 0   720
2 27607 064.5585 127.7050 0043120 148.4983 211.8718 14.71487059378581
CO-55
1 27844U 03031E   10006.53368056  .00000048  00000-0  42625-4 0 07527
2 27844 098.7106 017.8172 0009214 279.1843 080.8289 14.20676926338130
CO-57
1 27848U 03031J   10007.73734849  .00000005  00000-0  22793-4 0  7023
2 27848 098.7160 018.0767 0008928 279.4350 080.5805 14.20473591338262
AO-51
1 28375U 04025K   10006.53268591  .00000008  00000-0  15303-4 0 05745
2 28375 098.0533 009.3074 0082948 228.0438 131.3663 14.40664677290230
CO-56
1 28941U 06005C   09297.68475575  .14491492  29743-5  25760-3 0  5565
2 28941 098.0955 138.9518 0011688 319.8691 040.7485 16.46998778207909
GENESAT1
1 29655U 06058C   10006.32159783  .00022792  00000-0  17146-3 0 09120
2 29655 040.0209 345.6268 0005320 240.6856 119.3428 15.71879384174372
CP3
1 31129U 07012N   10007.81556225  .00000090  00000-0  31318-4 0  4497
2 31129 097.9630 055.7932 0103017 011.7083 348.6440 14.52197454144588
CO-65
1 32785U 08021C   10007.22850728  .00000410  00000-0  58837-4 0  5714
2 32785 097.9178 074.2202 0016082 088.7609 271.5440 14.81566915 91650
KKS-1
1 33493U 09002B   10007.71531435  .00000300  00000-0  45917-4 0   961
2 33493 098.0698 126.0358 0019003 302.2914 057.6470 14.80815274 51738
SOHLA-1
1 33496U 09002E   10006.78241139 -.00000019  00000-0  50649-5 0  9932
2 33496 098.0480 118.0797 0006725 005.6802 354.4462 14.69462564 51179
NOAA-10
1 16969U 86073A   10007.49127082 -.00000043  00000-0  47496-6 0  9080
2 16969 098.6735 037.8330 0011781 324.0456 035.9944 14.27403255212650
NOAA-11
1 19531U 88089A   10007.50514062  .00000298  00000-0  17696-3 0  9208
2 19531 098.7768 099.2414 0010909 244.3920 115.6139 14.14913252 98418
NOAA-12
1 21263U 91032A   10007.55859662  .00000024  00000-0  29167-4 0  4027
2 21263 098.7693 020.7044 0011531 274.3395 085.6473 14.25610088969517
MET-3/5
1 21655U 91056A   10006.82225271  .00000051  00000-0  10000-3 0  7051
2 21655 082.5543 062.6498 0014322 036.8953 323.3167 13.17019260884431
MET-2/21
1 22782U 93055A   10007.53829594 -.00000016  00000-0 -27732-4 0  6627
2 22782 082.5464 019.8946 0023538 130.8200 229.5022 13.83639940825861
OKEAN-4
1 23317U 94066A   10006.83700406  .00000315  00000-0  35865-4 0 01213
2 23317 082.5414 144.4485 0023688 056.1848 304.1618 14.82754566822543
NOAA-14
1 23455U 94089A   10007.49025134 -.00000030  00000-0  75575-5 0  8969
2 23455 098.8928 089.2737 0009134 336.5301 023.5455 14.13775994774797
NOAA-15
1 25338U 98030A   10007.12942681  .00000122  00000-0  70993-4 0  2239
2 25338 098.6051 357.0703 0010720 179.2851 180.8330 14.24801223605810
RESURS
1 25394U 98043A   10007.81469868 -.00000013  00000-0  11923-4 0  4007
2 25394 098.3180 034.5299 0001520 007.9720 352.1478 14.24192058597523
FENGYUN1
1 25730U 99025A   10006.44801719  .00000667  00000-0  41516-3 0 09420
2 25730 098.7724 335.7260 0024388 359.9766 000.1389 14.08167581548922
OKEAN-0
1 25860U 99039A   10007.83021624  .00000008  00000-0  85304-5 0  8818
2 25860 097.8116 346.1706 0000536 094.5756 265.5517 14.73606055563284
NOAA-16
1 26536U 00055A   10007.08144104  .00000229  00000-0  14876-3 0  7015
2 26536 099.1779 020.6971 0011102 071.5953 288.6419 14.12543914479086
NOAA-17
1 27453U 02032A   10007.17628248  .00000231  00000-0  11864-3 0  7025
2 27453 098.4565 063.9203 0010911 245.5726 114.4303 14.24121476391782
NOAA-18
1 28654U 05018A   10007.15832710 -.00000120  00000-0 -42043-4 0  1853
2 28654 098.9331 314.0451 0014662 144.8509 215.3633 14.11316228238722
NOAA-19
1 33591U 09005A   10007.74957038  .00000405  00000-0  24891-3 0  3930
2 33591 098.7724 313.4252 0014564 026.9140 333.2739 14.11016803 47288
HUBBLE
1 20580U 90037B   10006.86498872  .00000329  00000-0  12405-4 0  4998
2 20580 028.4697 212.9301 0003271 285.0678 074.9550 15.00875268880480
ISS
1 25544U 98067A   10008.06761631  .00010902  00000-0  68838-4 0  3284
2 25544 051.6470 333.3865 0007755 157.1785 297.1097 15.77228506638245
CO-58
1 28895U 05043F   10006.22645861  .00000090  00000-0  28329-4 0 04818
2 28895 098.0375 255.8548 0018878 073.7724 286.5524 14.59831647223350
FALCON
1 30776U 07006E   10006.92143374  .00000366  00000-0  29434-4 0 07513
2 30776 035.4346 303.1796 0001261 282.9268 077.1313 15.03415426155774
MAST
1 31126U 07012K   10006.66135283  .00000009  00000-0  12603-4 0 07717
2 31126 097.9602 056.8371 0094905 008.7510 351.5310 14.53544007144590
CAPE1
1 31130U 07012P   10006.62470748 -.00000110  00000-0 -14547-4 0 07866
2 31130 097.9624 054.5409 0102829 015.8623 344.5676 14.52120823144216
COMPASS
1 32787U 08021E   10006.17296983  .00000308  00000-0  45716-4 0 05646
2 32787 097.9152 073.0063 0016918 092.8835 267.4301 14.81729877091503
AAUSAT2
1 32788U 08021F   10006.59623676 -.00000140  00000-0 -10921-4 0 05563
2 32788 097.9158 073.5179 0016633 092.0373 268.2711 14.81859001091570
DO-64
1 32789U 08021G   10006.61565757  .00000668  00000-0  90875-4 0 05730
2 32789 097.9212 073.8501 0016700 090.9979 269.3175 14.81914074091576
CO-66
1 32791U 08021J   10006.17277400  .00000258  00000-0  39557-4 0 05532
2 32791 097.9175 073.0352 0017305 091.2633 269.0535 14.81540378091463
RS-30
1 32953U 08025A   10006.82843944  .00000010  00000-0  00000-0 0 04958
2 32953 082.5022 130.0164 0019788 095.3340 264.9997 12.43003136073699
TACSAT-3
1 35001U 09028A   10007.70587215  .00003274  00000-0  85375-4 0  1867
2 35001 040.4551 096.7872 0023560 247.0458 112.7870 15.39931762 35870
PHARMSAT
1 35002U 09028B   10007.65807274  .00002824  00000-0  72624-4 0  1786
2 35002 040.4685 095.7670 0026784 250.1911 109.6016 15.40626833 35873
HAWKSAT1
1 35003U 09028C   10007.60544554  .00005980  00000-0  14077-3 0  1852
2 35003 040.4618 094.2768 0025930 256.1979 103.5947 15.41996693 35897
CP6
1 35004U 09028D   10006.62197943  .00006707  00000-0  15603-3 0 01843
2 35004 040.4615 100.0304 0025191 249.4536 110.3575 15.42235317035736
AEROCUB3
1 35005U 09028E   10007.62214751  .00012294  00000-0  28059-3 0  1849
2 35005 040.4724 094.6729 0024638 252.9432 106.8685 15.42302527 35882
DRAGNSAT
1 35690U 09038B   10007.27582751  .00066361  12874-4  19694-3 0  1800
2 35690 051.6372 324.9957 0003061 053.0524 307.0746 15.92762059 25502
POLLUX
1 35693U 09038E   10007.24635725  .00053913  12233-4  17859-3 0  1742
2 35693 051.6386 326.3256 0000886 024.3350 335.7924 15.90870264 25454
CASTOR
1 35694U 09038F   10007.34505871  .00021167  00000-0  90724-4 0  1511
2 35694 051.6409 328.5701 0001592 299.7377 060.3488 15.85072754 25438
METEOR-M
1 35865U 09049A   10007.26457352  .00000176  00000-0  10000-3 0   967
2 35865 098.7835 062.0333 0003172 105.2948 254.8573 14.21828525 15859
RS-38
1 35869U 09049E   10007.60476772  .00000176  00000-0  10000-3 0   977
2 35869 098.7822 062.3882 0005389 105.9837 254.1905 14.21975483 15901
/EX





More information about the Keps mailing list